Location: Unspecified
(48.7670°N, 0.0000°E)
Time: 10:14:28
(UTC+00:00)

Courier 1B - Pass Details

Date: 24 June 2019
Orbit: 963 x 1209 km, 28.3° (Epoch: 18 July)

Event Time Altitude Azimuth Distance (km) Brightness Sun altitude
Rises 18:34:24 0° 224° (SW) 3,817 10.9 12.4°
Reaches altitude 10° 18:38:45 10° 199° (SSW) 2,922 10.0 11.7°
Maximum altitude 18:41:57 13° 173° (S) 2,713 9.6 11.2°
Drops below altitude 10° 18:45:13 10° 146° (SE) 3,006 9.6 10.8°
Sets 18:49:49 0° 122° (ESE) 4,020 10.0 10.1°
